WEATHER DATA

YESTERDAY
Time Temp. Dewp. Hum. Wind dir Wind speed Wind gust Bar. 1h Prec. 24h Prec.
00:04 20.4 12.9 62 90 0.3 1.1 1016.3 0.0000 0.0000
00:13 20.2 12.9 63 135 0.3 0.8 1016.3 0.0000 0.0000
00:23 20 13 64 270 0.3 1.1 1016.4 0.0000 0.0000
00:34 19.8 13 65 45 0.3 0.8 1016.4 0.0000 0.0000
00:44 19.6 12.8 65 153 0.3 0.8 1016.5 0.0000 0.0000
00:54 19.4 13.1 67 315 0.3 0.8 1016.4 0.0000 0.0000
01:04 19.2 13.2 68 270 0.3 0.8 1016.3 0.0000 0.0000
01:14 19.1 13.1 68 0.3 0.8 1016.5 0.0000 0.0000
01:24 18.9 12.9 68 347 0.3 0.8 1016.5 0.0000 0.0000
01:34 18.7 12.9 69 315 0.3 0.8 1016.5 0.0000 0.0000
01:44 18.6 12.8 69 270 0.3 0.8 1016.5 0.0000 0.0000
01:55 18.4 12.8 70 315 0.3 0.8 1016.6 0.0000 0.0000
02:05 18.4 12.8 70 341 0.3 0.8 1016.5 0.0000 0.0000
02:14 18.3 12.7 70 315 0.3 0.8 1016.5 0.0000 0.0000
02:25 18.1 12.8 71 270 0.3 0.8 1016.5 0.0000 0.0000
02:35 18 12.7 71 164 0.3 0.8 1016.5 0.0000 0.0000
02:45 17.8 12.5 71 348 0.3 0.8 1016.5 0.0000 0.0000
02:55 17.7 12.6 72 206 0.3 0.8 1016.6 0.0000 0.0000
03:05 17.5 12.4 72 135 0.3 1.1 1016.5 0.0000 0.0000
03:15 17.5 12.4 72 145 0.3 1.1 1016.5 0.0000 0.0000
03:25 17.4 12.3 72 158 0.3 1.1 1016.5 0.0000 0.0000
03:36 17.3 12.2 72 324 0.3 0.8 1016.5 0.0000 0.0000
03:46 17.1 12.2 73 306 0.3 1.1 1016.5 0.0000 0.0000
03:56 17 12.1 73 270 0.3 0.8 1016.4 0.0000 0.0000
04:05 16.8 11.9 73 143 0.3 1.1 1016.4 0.0000 0.0000
04:16 16.7 12 74 225 0.3 0.8 1016.4 0.0000 0.0000
04:26 16.5 12.1 75 225 0.3 1.1 1016.4 0.0000 0.0000
04:36 16.4 12 75 270 0.3 1.1 1016.5 0.0000 0.0000
04:46 16.3 11.9 75 135 0.3 1.1 1016.6 0.0000 0.0000
04:56 16.3 11.9 75 270 0.3 1.1 1016.6 0.0000 0.0000
05:06 16.3 11.9 75 270 0.3 0.8 1016.7 0.0000 0.0000
05:16 16.2 12 76 225 0.3 1.1 1016.9 0.0000 0.0000
05:27 16.1 11.9 76 270 0.3 1.1 1017 0.0000 0.0000
05:37 16 12 77 171 0.3 1.1 1017.1 0.0000 0.0000
05:47 16 12 77 165 0.3 1.1 1017.2 0.0000 0.0000
05:57 16 12 77 180 0.3 0.8 1017.3 0.0000 0.0000
06:07 16.1 12.1 77 183 0.3 1.1 1017.3 0.0000 0.0000
06:17 16.2 12.2 77 171 0.3 1.1 1017.3 0.0000 0.0000
06:27 16.3 12.1 76 161 0.3 1.1 1017.3 0.0000 0.0000
06:38 16.4 12.4 77 144 0.3 1.1 1017.4 0.0000 0.0000
06:47 16.5 12.5 77 198 0.3 1.1 1017.4 0.0000 0.0000
06:57 16.6 12.4 76 135 0.3 1.7 1017.5 0.0000 0.0000
07:07 16.7 12.5 76 155 0.3 1.9 1017.5 0.0000 0.0000
07:18 16.8 12.3 75 150 0.8 1.9 1017.5 0.0000 0.0000
07:28 16.8 12.3 75 153 0.3 1.9 1017.6 0.0000 0.0000
07:37 16.9 12.4 75 140 0.3 1.1 1017.6 0.0000 0.0000
07:48 17 12.5 75 161 0.3 1.9 1017.7 0.0000 0.0000
07:58 17.1 12.8 76 135 0.3 1.7 1017.9 0.0000 0.0000
08:08 17.2 12.9 76 145 0.3 1.1 1018 0.0000 0.0000
08:18 17.3 13 76 153 0.3 1.7 1018.1 0.0000 0.0000
08:29 17.5 13.2 76 143 0.3 1.1 1018.1 0.0000 0.0000
08:38 17.7 13.2 75 131 0.3 1.7 1018.2 0.0000 0.0000
08:48 17.8 13.7 77 210 0.8 2.5 1018.1 0.0000 0.0000
08:59 17.7 16 90 153 0.3 1.1 1018.1 0.0000 0.0000
09:09 17.6 15.9 90 135 0.3 1.9 1018.1 0.0000 0.0000
09:19 17.7 16.2 91 128 0.8 1.7 1018 0.0000 0.0000
09:29 17.8 16.3 91 90 0.3 1.9 1018 0.0000 0.0000
09:39 17.9 16.4 91 126 0.3 2.8 1018 0.0000 0.0000
09:49 18 16.5 91 188 0.8 1.7 1017.9 0.0000 0.0000
09:59 18.1 16.6 91 194 0.8 2.5 1017.9 0.0000 0.0000
10:09 18.3 16.8 91 182 0.8 1.9 1017.9 0.0000 0.0000
10:20 18.5 17 91 139 0.8 1.7 1017.9 0.0000 0.0000
10:29 18.6 17.1 91 186 0.8 1.7 1017.7 0.0000 0.0000
10:39 18.9 17.4 91 171 0.8 1.9 1017.9 0.0000 0.0000
10:50 19.1 17.6 91 150 0.8 2.5 1017.7 0.0000 0.0000
11:00 19.3 17.6 90 101 0.8 2.8 1017.6 0.0000 0.0000
11:10 19.4 17.7 90 147 0.8 2.8 1017.7 0.0000 0.0000
11:23 19.7 18 90 111 0.8 5 1017.6 0.0000 0.0000
11:32 20 18.3 90 115 0.8 2.5 1017.6 0.0000 0.0000
11:43 20.3 18.6 90 145 0.8 2.5 1017.5 0.0000 0.0000
11:53 20.6 18.9 90 158 0.8 1.9 1017.6 0.0000 0.0000
12:03 20.7 19 90 165 0.8 1.9 1017.5 0.0000 0.0000
12:13 20.8 19.1 90 188 0.3 1.7 1017.5 0.0000 0.0000
12:24 21 19.3 90 183 0.8 3.3 1017.4 0.0000 0.0000
12:33 21 19.3 90 155 0.3 1.9 1017.4 0.0000 0.0000
12:43 21.2 19.3 89 140 0.3 1.9 1017.4 0.0000 0.0000
12:54 21.4 19.5 89 199 0.8 3.6 1017.4 0.0000 0.0000
13:04 21.5 19.4 88 153 0.8 1.9 1017.4 0.0000 0.0000
13:14 21.5 19.4 88 218 1.1 3.3 1017.3 0.0000 0.0000
13:24 21.7 19.4 87 176 0.8 1.9 1017.3 0.0000 0.0000
13:34 21.8 19.2 85 205 0.8 2.8 1017.3 0.0000 0.0000
13:44 22 18.8 82 150 0.8 2.8 1017.2 0.0000 0.0000
14:04 22.4 18 76 180 0.8 2.8 1016.9 0.0000 0.0000
14:15 22.6 17.3 72 188 0.8 3.3 1016.8 0.0000 0.0000
14:24 22.6 17.1 71 168 0.8 1.9 1016.8 0.0000 0.0000
14:34 22.8 16.8 69 168 0.8 3.6 1016.8 0.0000 0.0000
14:45 22.8 16.6 68 180 0.8 4.2 1016.7 0.0000 0.0000
14:55 23 16.3 66 189 1.1 2.8 1016.7 0.0000 0.0000
15:15 23.5 16.3 64 192 1.1 2.8 1016.5 0.0000 0.0000
15:35 23.7 16.5 64 210 0.8 3.6 1016.4 0.0000 0.0000
15:45 23.8 16.6 64 194 1.7 5.3 1016.3 0.0000 0.0000
16:03 24 16.5 63 225 1.1 5.3 1016.3 0.0000 0.0000
16:12 24.3 16.3 61 194 0.8 1.9 1016.3 0.0000 0.0000
16:22 24.3 16.3 61 192 1.1 2.8 1016.3 0.0000 0.0000
16:32 24.4 16.4 61 140 0.3 1.9 1016.3 0.0000 0.0000
16:43 24.4 16.7 62 154 0.8 1.7 1016.2 0.0000 0.0000
16:52 24.4 16.1 60 158 0.8 3.6 1016.2 0.0000 0.0000
17:02 24.3 16.3 61 146 0.3 1.7 1016.1 0.0000 0.0000
17:12 24.3 16.6 62 188 0.3 1.1 1016.1 0.0000 0.0000
17:23 24.3 15.8 59 169 0.8 3.3 1016.1 0.0000 0.0000
17:33 24.4 15.9 59 164 1.1 3.3 1016.1 0.0000 0.0000
17:42 24.4 16.1 60 161 0.8 1.9 1016.1 0.0000 0.0000
17:53 24.5 16.2 60 79 1.1 4.4 1016 0.0000 0.0000
18:03 24.5 16 59 90 1.1 3.3 1015.9 0.0000 0.0000
18:13 24.5 15.7 58 149 0.8 3.6 1016.1 0.0000 0.0000
18:23 24.4 15.9 59 225 0.8 3.6 1016.1 0.0000 0.0000
18:33 24.3 15.5 58 176 0.8 3.3 1016.1 0.0000 0.0000
18:43 24.3 15.5 58 194 1.1 3.6 1016.1 0.0000 0.0000
18:53 24.2 15.4 58 184 0.8 1.9 1016.1 0.0000 0.0000
19:04 24.2 15.4 58 206 1.1 2.8 1016.1 0.0000 0.0000
19:14 24.1 15.6 59 154 0.8 2.5 1016.1 0.0000 0.0000
19:24 24 15.2 58 165 0.8 4.2 1016.2 0.0000 0.0000
19:29 24 15.2 58 149 1.1 6.1 1016.3 0.0000 0.0000
19:39 23.8 15 58 164 0.8 2.8 1016.4 0.0000 0.0000
19:50 23.7 15 58 194 1.1 3.3 1016.4 0.0000 0.0000
20:00 23.5 14.5 57 174 0.8 3.6 1016.5 0.0000 0.0000
20:09 23.3 14.3 57 180 0.8 3.3 1016.6 0.0000 0.0000
20:20 23.1 13.9 56 203 1.1 3.3 1016.7 0.0000 0.0000
20:30 22.9 13.9 57 143 0.3 2.5 1016.7 0.0000 0.0000
20:40 22.6 13.4 56 217 1.1 4.2 1016.8 0.0000 0.0000
20:50 22.4 13.2 56 198 0.8 2.8 1016.8 0.0000 0.0000
21:01 22.1 14.2 61 191 0.8 3.3 1016.9 0.0000 0.0000
21:10 21.5 19.1 86 173 0.8 2.5 1016.9 0.0000 0.0000
21:20 21 19.1 89 156 0.8 2.5 1017 0.0000 0.0000
21:30 20.8 19.1 90 161 0.8 2.8 1017.1 0.0000 0.0000
21:41 20.5 18.8 90 153 0.8 2.5 1017.3 0.0000 0.0000
21:51 20.3 18.6 90 167 0.8 3.3 1017.3 0.0000 0.0000
22:00 20.2 18.5 90 171 0.8 2.8 1017.4 0.0000 0.0000
22:11 20 18.3 90 175 0.8 1.9 1017.4 0.0000 0.0000
22:21 19.9 18.2 90 156 0.8 2.5 1017.5 0.0000 0.0000
22:31 19.8 18.1 90 168 0.8 1.9 1017.6 0.0000 0.0000
22:41 19.7 17.8 89 165 0.8 1.7 1017.6 0.0000 0.0000
22:52 19.6 17.7 89 157 0.8 2.5 1017.6 0.0000 0.0000
23:01 19.5 17.6 89 150 0.8 1.9 1017.7 0.0000 0.0000
23:11 19.5 17.6 89 144 0.3 1.7 1017.7 0.0000 0.0000
23:22 19.4 17.7 90 180 0.8 1.9 1017.7 0.0000 0.0000
23:32 19.4 17.7 90 135 0.8 2.5 1017.9 0.0000 0.0000
23:42 19.4 17.7 90 135 0.3 1.7 1018 0.0000 0.0000
23:52 19.4 17.7 90 135 0.3 1.7 1018 0.0000 0.0000

DAY STATISTIC

2022-07-05
TEMPERATURE
AVERAGE
20.1
HIGH
24.5
17:53
LOW
16.0
05:37
PRESSURE
AVERAGE
1017.0
HIGH
1018.2
08:38
LOW
1015.9
18:03
DEWPOINT
AVERAGE
15.3
HIGH
19.5
12:54
LOW
11.9
04:05
HUMIDITY
AVERAGE
75
HIGH
91
09:19
LOW
56
20:20
WIND SPEED
AVERAGE
0.6
HIGH
1.7
15:45
WIND GUST
AVERAGE
2.1
HIGH
6.1
19:29
WIND DIRECTION
PREVAILING
S
39.6%
N
2.2
NE
0.7
E
4.3
SE
33.1
S
39.6
SW
8.6
W
6.5
NW
4.3
PRECIPITATION
RAIN HOUR
0.0
RAIN DAY
0.0
TEMPERATURE (°C)
LOW
16.0
HIGH
24.5
AVERAGE
20.1
PRESSURE (hpa)
LOW
1015.9
HIGH
1018.2
AVERAGE
1017.0
DEVICE